Airfield :
LOGIN :

Register | Disclaimer

   EN    FR    IT 

 










Legend :    VFR   Marginal VFR   IFR   Intensive IFR   Very Intensive IFR
Visi :
Ceiling :
>= 8 km
>= 3000ft
5 to 8 km
1000 to 3000 ft
1500m to 5 km
500 to 1000 ft
800 to 1500m
200 to 500 ft
< 800m
< 200 ft
Symbols :   Thunderstorms  Fog  Heavy snow  Heavy precipitations  Wind > 20 kt
SIGMETs :     Misc.  Thunderstorms  Icing  Turbulence  Mountain Waves  Volcanic Ashes






- Airport Elevation : 68 ft


ESCM - Uppsala

CURRENT METAR :
  • 270720Z 13005KT CAVOK 12/10 Q1026

EXPIRED METARs :
  • 270650Z 14004KT CAVOK 10/10 Q1026
  • 270620Z 15003KT CAVOK 09/09 Q1026
  • 270550Z 13005KT CAVOK 06/06 Q1026
  • 270520Z AUTO 13005KT 9999 NCD 04/04 Q1026
  • 270450Z AUTO 14002KT 9999 FEW230/// 05/05 Q1025

TAF TAF ESCM
Valid from the 27 at 05:00 until the 27 at 12:00 UTC


270500Z 2705/2712 15008G18KT CAVOK



MET'MAP, your aeronautical weather chart ! - Copyright ORBIFLY December 2007 - Disclaimer

ORBIFLY MET'MAP TEAM :

Programming & Development : Alexandra Zaïnal
Concept & original design : Baudouin d'Aumeries
Assistance for programming : Marc-Olivier Méhu
Technical & hardware support : Manuel Goepfert

Contact : metmap@orbifly.com




SOURCES & CREDITS :

   NOAA